Cloud_Cover
96 100 100 100 82 30 93 49 34 92 99 100 100 100 100 100 100 100 100 100 98 100
100 100 100 100 100 95 100 42 34 82 88 100 100 100 100 100 100 100 100 100 100 100
98 100 100 100 98 100 100 100 99 100 100 100 100 88 100 100 100 100 100 100 100 100
100 100 100 100 100 100 100 100 100 100 100 100 100 100 100 100 100 100 100 100 100 100
100 100 100 100 100 100 100 100 100 98 100 100 100 100 100 100 100 100 100 100 100 100
100 100 100 100 100 100 100 100 97 100 100 100 98 85 100 100 100 100 100 100 100 100
100 100 100 100 100 100 96 97 100 96 100 100 100 100 100 100 100 100 100 100 100 100
100 100 100 100 100 100 99 100 90 98 100 100 100 100 100 100 100 100 100 100 100 100
100 100 100 100 100 100 100 100 100 100 100 100 100 100 100 100 100 100 100 100 100 100
100 100 100 100 100 100 100 100 100 100 100 100 100 100 100 100 100 100 100 100 100 100
100 100 100 100 100 100 100 100 100 100 100 100 100 100 100 100 100 100 100 100 100 100
100 100 100 100 100 100 100 100 100 100 100 100 100 100 100 100 100 100 100 100 100 100
100 100 100 100 100 100 100 100 100 100 100 100 100 100 100 100 100 100 100 100 100 100
100 100 100 100 100 100 100 100 100 100 100 100 100 100 100 100 100 100 100 100 100 100